Find Starlink 36591

NORAD ID: 67576 Int'l Des: 2026-016 Owner: SPXS Country: US Constellation: starlink operational
LEOCIRCULARRETROGRADE

現在のビュー

3D地球を読み込み中...

Starlink 36591について

説明を読み込み中...

次回通過

Passes for default location (London). Set your location on the main map for personalized predictions.

高度履歴

Loading altitude history...

軌道要素

1 67576U 26016R 26146.11969448 .00018917 00000-0 58666-3 0 9997
2 67576 97.2844 206.4852 0000746 135.2434 224.8869 15.33454210 18739
Epoch: May 26, 2026 • Age: 18 hours

現在のステータス

高度 469.5 km
速度 7.63 km/s
衛星直下点 33.96°N, 163.3°W
打ち上げ日 Jan 25, 2026
運用期間 0.3 years
タイプ internet

技術仕様

分類 Payload
質量 575.00 kg
乾燥質量 530.00 kg
総質量 575.00 kg
長さ 0.30 m
直径 4.10 m
スパン 29.00 m
形状 Box + pan
製造者 SPXS
バスタイプ Starlink V2MO
フェーズステータス In Orbit
所有者/国 SPXS/US

Most Searched